[[{"header":{"parameterUnit":"m.s-1","parameterCategory":2,"la1":30.2991,"la2":30.254,"lo1":-89.0895,"lo2":-89.0444,"dy":0.0017,"dx":0.0017,"nx":28,"ny":28,"refTime":"2024-12-14T09:00:00:Z","depth":"0","parameterNumber":2,"parameterNumberName":"U-component_of_CURRENTS"},"data":[0,0,0,0,0,0,0,0,0,0,0,0,0,0,0,0,0,0,0,0,0,0,0,0,0,0,0,0,0,0,0,0,0,0,0,0,0,0,0,0,0,0,0,0,0,0,0,0,0,0,0,0,0,0,0,0,0,0,0.423,0.423,0,0.4196,0.4196,0.4195,0.415,0.4149,0.4149,0.4148,0.4118,0.4118,0.4118,0,0,0,0,0,0,0,0,0,0,0,0,0,0.4234,0.4234,0.423,0.4229,0.4229,0.4196,0.4196,0.4195,0.415,0.4149,0.4149,0.4148,0.4119,0.4118,0.4118,0,0,0,0,0,0,0,0,0,0,0,0,0,0.4217,0.4234,0.423,0.4205,0.4203,0.4196,0.4196,0.4195,0.415,0.4149,0.4149,0.4148,0.4119,0.4118,0.4118,0.4129,0,0,0.4116,0.4116,0,0,0,0,0,0,0,0,0.4218,0.4216,0.4209,0.4207,0.4204,0.4179,0.4186,0.4174,0.415,0.4167,0.4148,0.4147,0.4141,0.4139,0.413,0.4128,0.4127,0.4116,0.4116,0.4116,0.4115,0,0,0,0,0,0,0,0.4219,0.4217,0.4214,0.4209,0.4206,0.4189,0.4185,0.4183,0.4157,0.4166,0.4163,0.4164,0.414,0.4131,0.4129,0.4126,0.4116,0.4116,0.4115,0.4115,0.4182,0.4183,0,0,0,0,0,0,0.4231,0.4219,0.4215,0.4213,0.4212,0.419,0.4186,0.4185,0.4157,0.4152,0.4165,0.4162,0.4132,0.413,0.4128,0.4175,0.4116,0.4115,0.4115,0.4179,0.4182,0.4184,0,0,0,0,0,0,0.4231,0.4231,0.4216,0.4217,0.4214,0.4191,0.4191,0.4185,0.4181,0.4156,0.4151,0.4166,0.4131,0.4129,0.4143,0.4173,0.4115,0.4114,0.4177,0.418,0.4183,0.4248,0,0,0,0,0,0,0.4231,0.4231,0.4235,0.4218,0.4215,0.4221,0.4191,0.4185,0.4184,0.418,0.4157,0.4152,0.4131,0.4144,0.4142,0.4171,0.4114,0.4174,0.4178,0.4182,0.4243,0.4253,0.4261,0,0,0,0,0,0.4232,0.4243,0.4236,0.4235,0.4221,0.4222,0.4219,0.4197,0.4185,0.4189,0.418,0.4153,0.4167,0.4145,0.4143,0.4172,0.4173,0.4177,0.4182,0.4239,0.4251,0.4261,0,0,0,0,0,0,0.4247,0.4239,0.4231,0.4238,0.4235,0.4215,0.4221,0.4207,0.4201,0.4202,0.4174,0.417,0.42,0.4181,0.4157,0.4206,0.4168,0.4173,0.4213,0.4224,0.4233,0.4252,0.4114,0,0,0,0,0,0.4254,0.426,0.425,0.4258,0.4261,0.4244,0.4242,0.4229,0.4223,0.4219,0.4204,0.4202,0.4218,0.4215,0.4222,0.424,0.4253,0.4261,0.427,0.4278,0.4295,0.4347,0.4362,0.4199,0.4199,0.4199,0,0,0.4269,0.426,0.4268,0.4263,0.4259,0.4265,0.424,0.4247,0.4255,0.4219,0.4232,0.4236,0.4234,0.4261,0.4272,0.4245,0.4333,0.4284,0.429,0.4303,0.4353,0.4369,0.4383,0.4203,0.4202,0.4202,0,0,0.429,0.4292,0.4299,0.4298,0.4295,0.429,0.4297,0.4287,0.4288,0.4301,0.4293,0.432,0.4315,0.4331,0.4336,0.4402,0.4388,0.4401,0.4448,0.4498,0.4512,0.4524,0.4566,0.4581,0.4394,0.4394,0.4394,0,0.4309,0.4304,0.4304,0.4304,0.4307,0.4306,0.4314,0.4323,0.4318,0.4333,0.4315,0.4361,0.4355,0.4409,0.4433,0.4422,0.4444,0.4402,0.451,0.4522,0.4533,0.4573,0.4589,0.4398,0.4397,0.4397,0.4396,0,0.432,0.4323,0.4333,0.4333,0.4341,0.4352,0.4364,0.4382,0.4385,0.4391,0.4447,0.4454,0.4477,0.4488,0.4477,0.456,0.4549,0.4523,0.4479,0.4554,0.4591,0.4606,0.4403,0.4402,0.44,0.44,0,0,0.4344,0.4341,0.4344,0.4334,0.4354,0.4353,0.4401,0.4431,0.4473,0.4482,0.4536,0.4572,0.4581,0.4592,0.4593,0.4639,0.4736,0.4616,0.4617,0.4653,0.485,0.4795,0.4807,0.4726,0.4729,0.4732,0.4845,0,0.4351,0.434,0.4353,0.436,0.4353,0.4384,0.4426,0.446,0.4507,0.4565,0.4598,0.4655,0.4619,0.4651,0.4688,0.4738,0.478,0.4708,0.4777,0.478,0.4718,0.4824,0.4638,0.4719,0.486,0.4862,0.4864,0,0.4342,0.4333,0.4329,0.4348,0.4356,0.4372,0.4443,0.4486,0.4587,0.4637,0.4704,0.4735,0.4816,0.4774,0.4879,0.4835,0.4851,0.4877,0.4881,0.4819,0.4755,0.4668,0.4742,0.464,0.4888,0.4886,0.4884,0,0.4298,0.4314,0.4301,0.4302,0.4336,0.4357,0.4397,0.4495,0.4555,0.4697,0.4753,0.485,0.4904,0.4952,0.4988,0.4947,0.5104,0.5045,0.501,0.5006,0.4857,0.4834,0.4835,0.5122,0.5122,0.5122,0.5121,0,0.4273,0.4263,0.4273,0.4257,0.4274,0.432,0.4382,0.4463,0.4594,0.4665,0.4774,0.4853,0.4954,0.5033,0.5047,0.509,0.5145,0.5055,0.5046,0.4874,0.4852,0.4763,0.4704,0.5126,0.5125,0.5124,0.5124,0,0.4211,0.4222,0.4196,0.4223,0.4238,0.4245,0.4345,0.4392,0.4546,0.4651,0.4697,0.4883,0.5003,0.5083,0.5201,0.5161,0.5075,0.5205,0.4999,0.4964,0.4802,0.4753,0.4599,0.4451,0.5188,0.5187,0.5187,0,0.4177,0.4153,0.4144,0.4125,0.4132,0.4165,0.4187,0.4347,0.4415,0.4645,0.4678,0.4867,0.4971,0.5145,0.5165,0.5219,0.5051,0.5041,0.4924,0.4803,0.4743,0.4564,0.4437,0.4756,0.4752,0.4749,0.4746,0,0.4112,0.4097,0.4063,0.4017,0.4012,0.4029,0.4087,0.415,0.4334,0.4429,0.4587,0.4712,0.4928,0.4943,0.5049,0.5042,0.48,0.4976,0.4902,0.4464,0.4217,0.4065,0.4677,0.4718,0.4721,0.4723,0.4724,0.4726,0.4039,0.3986,0.3925,0.3873,0.3869,0.3866,0.3842,0.3937,0.4023,0.4142,0.4385,0.4483,0.4674,0.482,0.4796,0.4664,0.4626,0.4501,0.4474,0.4322,0.4099,0.4658,0.4653,0.4655,0.4657,0.4659,0.466,0,0.3888,0.3835,0.3788,0.3694,0.3624,0.3691,0.3727,0.3684,0.3698,0.39,0.4016,0.4171,0.4239,0.4357,0.4362,0.4198,0.3993,0.4063,0.3768,0.3682,0.4239,0.4142,0.3961,0.3961,0.3961,0.3961,0.3961,0.3962,0.3798,0.367,0.3632,0.346,0.3411,0.328,0.3269,0.3255,0.3346,0.3407,0.3485,0.3654,0.3981,0.4107,0.3987,0.3875,0.3558,0.3384,0.3378,0.3794,0.3832,0.3868,0.3765,0.3508,0.3507,0.2654,0.2648,0.2643]},{"header":{"parameterUnit":"m.s-1","parameterCategory":2,"la1":30.2991,"la2":30.254,"lo1":-89.0895,"lo2":-89.0444,"dy":0.0017,"dx":0.0017,"nx":28,"ny":28,"refTime":"2024-12-14T09:00:00:Z","depth":"0","parameterNumber":3,"parameterNumberName":"V-component_of_CURRENTS"},"data":[0,0,0,0,0,0,0,0,0,0,0,0,0,0,0,0,0,0,0,0,0,0,0,0,0,0,0,0,0,0,0,0,0,0,0,0,0,0,0,0,0,0,0,0,0,0,0,0,0,0,0,0,0,0,0,0,0,0,0.0119,0.0119,0,0.0072,0.0071,0.007,0.0022,0.0022,0.0022,0.0021,-0.0086,-0.0089,-0.0091,0,0,0,0,0,0,0,0,0,0,0,0,0,0.0108,0.0108,0.0119,0.0119,0.0119,0.0072,0.0071,0.007,0.0022,0.0022,0.0022,0.0021,-0.0085,-0.0088,-0.0091,0,0,0,0,0,0,0,0,0,0,0,0,0,0.0088,0.0108,0.0119,0.0093,0.009,0.0072,0.0071,0.007,0.0022,0.0022,0.0021,0.0021,-0.0084,-0.0088,-0.0092,-0.0109,0,0,-0.0104,-0.0106,0,0,0,0,0,0,0,0,0.0089,0.0088,0.0097,0.0095,0.0092,0.0057,0.0028,0.0008,0.0022,0.0043,0.0021,0.0021,-0.0041,-0.0048,-0.0062,-0.0114,-0.0119,-0.0104,-0.0107,-0.0108,-0.0109,0,0,0,0,0,0,0,0.009,0.0089,0.0096,0.0097,0.0094,0.0063,0.006,0.0024,-0.0001,0.0041,0.0039,0.0041,-0.0043,-0.0058,-0.0065,-0.012,-0.0104,-0.0108,-0.011,-0.0112,-0.0193,-0.0193,0,0,0,0,0,0,0.0109,0.0091,0.0097,0.0095,0.0095,0.0064,0.006,0.0064,0.0001,-0.0007,0.0041,0.0039,-0.0051,-0.006,-0.0069,-0.0075,-0.0108,-0.0112,-0.0114,-0.0193,-0.0193,-0.0193,0,0,0,0,0,0,0.0109,0.011,0.0099,0.0095,0.0092,0.0066,0.007,0.0064,0.0055,0.0002,-0.0008,0.004,-0.0052,-0.0063,-0.0092,-0.008,-0.0114,-0.0117,-0.0194,-0.0193,-0.0193,-0.0099,0,0,0,0,0,0,0.0109,0.0111,0.0114,0.0097,0.0093,0.0104,0.0071,0.0063,0.0059,0.0055,-0.0002,-0.0013,-0.0053,-0.0086,-0.0096,-0.0086,-0.0121,-0.0194,-0.0193,-0.0193,-0.0102,-0.0095,-0.0089,0,0,0,0,0,0.0109,0.0126,0.0115,0.0116,0.0102,0.0105,0.01,0.0076,0.0059,0.0064,0.0022,-0.0011,-0.0091,-0.0088,-0.01,-0.0092,-0.0194,-0.0194,-0.0193,-0.0105,-0.0097,-0.009,0,0,0,0,0,0,0.0116,0.0122,0.011,0.0125,0.0121,0.0099,0.0102,0.0085,0.0055,0.0049,-0.0007,-0.002,-0.0042,-0.0081,-0.0077,-0.0116,-0.0149,-0.0151,-0.0078,-0.007,-0.0064,-0.0034,-0.0124,0,0,0,0,0,0.0122,0.0141,0.0133,0.0145,0.0148,0.0125,0.0121,0.0108,0.0084,0.0071,0.0033,-0.0013,-0.0051,-0.007,-0.0109,-0.0127,-0.0163,-0.0132,-0.0125,-0.0119,-0.0104,-0.0149,-0.0145,-0.0191,-0.0191,-0.0191,0,0,0.0121,0.0134,0.0137,0.0149,0.0141,0.0162,0.0121,0.0127,0.0138,0.0063,0.0059,0.0009,-0.0051,-0.0072,-0.0085,-0.0101,-0.0126,-0.0119,-0.0113,-0.0101,-0.0148,-0.0144,-0.014,-0.0191,-0.0191,-0.0191,0,0,0.0157,0.0149,0.0184,0.0191,0.0202,0.0189,0.0198,0.0183,0.0167,0.0155,0.0103,0.0066,0.0011,-0.0025,-0.0053,-0.0036,-0.0091,-0.0054,0.0005,-0.004,-0.0036,-0.0033,-0.007,-0.0071,-0.005,-0.005,-0.005,0,0.0163,0.0206,0.0191,0.0235,0.0252,0.0211,0.0252,0.023,0.0206,0.0202,0.0167,0.0089,0.0035,0.0013,0.0014,-0.0019,-0.0052,-0.0016,-0.0029,-0.0027,-0.0026,-0.0065,-0.0067,-0.0045,-0.0046,-0.0046,-0.0047,0,0.023,0.0264,0.0288,0.0331,0.0341,0.0369,0.0351,0.0344,0.0315,0.0294,0.0263,0.0183,0.0142,0.011,0.0065,0.0051,0.0021,-0.0015,-0.0042,-0.0015,-0.0059,-0.0063,-0.0039,-0.004,-0.0042,-0.0043,0,0,0.0257,0.0324,0.0333,0.0379,0.0399,0.0421,0.0431,0.0439,0.046,0.0396,0.0411,0.0321,0.0276,0.0241,0.0173,0.0125,0.0097,0.0067,0.0063,0.0043,0.0005,-0.0009,-0.0016,0.0058,0.0058,0.0058,-0.0027,0,0.0322,0.0429,0.0435,0.0522,0.0578,0.055,0.0568,0.0561,0.0541,0.0539,0.044,0.0422,0.0326,0.0308,0.0246,0.0142,0.009,0.0124,-0.0029,-0.0033,-0.0039,-0.0019,0.0014,-0.0059,-0.0032,-0.0033,-0.0033,0,0.0397,0.0466,0.0566,0.0645,0.0662,0.0691,0.073,0.0749,0.072,0.0701,0.0656,0.058,0.0503,0.0413,0.025,0.0277,0.0155,0.0059,0.0053,0.0007,-0.0055,-0.0085,-0.0068,-0.026,-0.004,-0.004,-0.0039,0,0.0461,0.056,0.0648,0.0676,0.0743,0.0769,0.0794,0.0797,0.0844,0.0814,0.0834,0.0716,0.0677,0.0504,0.0302,0.0278,0.0118,0.0058,-0.0073,-0.0076,-0.0093,-0.0096,-0.0267,-0.006,-0.0059,-0.0059,-0.0059,0,0.0545,0.0617,0.0684,0.0741,0.0841,0.0851,0.0949,0.0951,0.0984,0.1057,0.093,0.0956,0.0698,0.057,0.0358,0.0146,0.016,-0.0051,-0.0095,-0.006,-0.0059,-0.0264,-0.04,-0.0062,-0.0062,-0.0061,-0.006,0,0.0608,0.0649,0.0772,0.0855,0.0885,0.0961,0.1072,0.1145,0.1149,0.1241,0.1237,0.1148,0.0989,0.0719,0.0453,0.0247,-0.0096,-0.0063,0.0,-0.0035,-0.0338,-0.0469,-0.0712,-0.0796,-0.0217,-0.0218,-0.0219,0,0.0649,0.0714,0.0862,0.0941,0.0983,0.1094,0.1175,0.1227,0.1326,0.137,0.1429,0.1305,0.126,0.0869,0.0483,0.0119,-0.0107,-0.011,-0.016,-0.0339,-0.0519,-0.0618,-0.0677,-0.0151,-0.0151,-0.0151,-0.0151,0,0.0729,0.0778,0.0888,0.1052,0.116,0.1297,0.142,0.1525,0.1591,0.167,0.1756,0.1722,0.1356,0.1033,0.052,0.0244,-0.0247,-0.0123,-0.0329,-0.0493,-0.0592,-0.0696,-0.0113,-0.0151,-0.0151,-0.0151,-0.0151,-0.0151,0.0789,0.0881,0.1023,0.1178,0.1309,0.1474,0.1599,0.1744,0.1917,0.205,0.2014,0.202,0.152,0.0852,0.0458,-0.0229,-0.0263,-0.0434,-0.0581,-0.0665,-0.0742,-0.0151,-0.0228,-0.0229,-0.0229,-0.0229,-0.023,0,0.0878,0.0982,0.1131,0.1324,0.147,0.1524,0.1744,0.188,0.2093,0.2236,0.2319,0.2099,0.1493,0.0833,-0.0082,-0.0573,-0.0765,-0.086,-0.0997,-0.1037,-0.052,-0.051,-0.0625,-0.0625,-0.0625,-0.0625,-0.0625,-0.0624,0.0929,0.1089,0.1167,0.1418,0.1545,0.1745,0.1875,0.208,0.2242,0.2432,0.2467,0.2456,0.1946,0.0323,-0.0758,-0.1019,-0.1365,-0.1469,-0.164,-0.1293,-0.1263,-0.1236,-0.1256,-0.1526,-0.1527,-0.2056,-0.2062,-0.2066]}],[{"header":{"parameterUnit":"m.s-1","parameterCategory":2,"la1":30.2991,"la2":30.254,"lo1":-89.0895,"lo2":-89.0444,"dy":0.0017,"dx":0.0017,"nx":28,"ny":28,"refTime":"2024-12-14T09:00:00:Z","depth":"2","parameterNumber":2,"parameterNumberName":"U-component_of_CURRENTS"},"data":[0,0,0,0,0,0,0,0,0,0,0,0,0,0,0,0,0,0,0,0,0,0,0,0,0,0,0,0,0,0,0,0,0,0,0,0,0,0,0,0,0,0,0,0,0,0,0,0,0,0,0,0,0,0,0,0,0,0,0.3671,0.3672,0,0.3719,0.372,0.372,0.3717,0.3717,0.3717,0.3716,0.3713,0.3713,0.3713,0,0,0,0,0,0,0,0,0,0,0,0,0,0.3585,0.3586,0.3671,0.3672,0.3673,0.3719,0.372,0.372,0.3717,0.3717,0.3717,0.3716,0.3713,0.3713,0.3713,0,0,0,0,0,0,0,0,0,0,0,0,0,0.3622,0.3587,0.3671,0.3681,0.3683,0.3719,0.372,0.372,0.3717,0.3717,0.3717,0.3716,0.3713,0.3713,0.3713,0.3721,0,0,0.3714,0.3714,0,0,0,0,0,0,0,0,0.362,0.3625,0.3678,0.368,0.3683,0.3716,0.3688,0.3719,0.3717,0.3699,0.3716,0.3716,0.3713,0.3713,0.3716,0.3721,0.3721,0.3714,0.3714,0.3714,0.3714,0,0,0,0,0,0,0,0.3617,0.3623,0.3685,0.368,0.3682,0.3687,0.3691,0.3694,0.3702,0.37,0.3702,0.3715,0.3713,0.3716,0.3716,0.3721,0.3714,0.3714,0.3714,0.3714,0.3798,0.38,0,0,0,0,0,0,0.3622,0.362,0.3684,0.3687,0.3655,0.3689,0.3693,0.3702,0.3703,0.3705,0.3715,0.3715,0.3716,0.3716,0.3716,0.3778,0.3714,0.3714,0.3714,0.3796,0.3799,0.3801,0,0,0,0,0,0,0.3619,0.3627,0.3682,0.3659,0.3667,0.3691,0.37,0.3703,0.3723,0.3716,0.3716,0.3736,0.3716,0.3716,0.3741,0.3776,0.3714,0.3714,0.3794,0.3797,0.38,0.3868,0,0,0,0,0,0,0.3617,0.3625,0.3638,0.3659,0.3669,0.3719,0.3701,0.3704,0.3734,0.3734,0.3733,0.3732,0.3715,0.3741,0.3741,0.3775,0.3714,0.3791,0.3795,0.3799,0.3863,0.3873,0.3882,0,0,0,0,0,0.3613,0.3632,0.3638,0.3646,0.3683,0.3721,0.3726,0.3738,0.3735,0.3753,0.3755,0.3732,0.3767,0.3743,0.3743,0.3777,0.3789,0.3794,0.3799,0.3859,0.3871,0.3882,0,0,0,0,0,0,0.3603,0.3634,0.3641,0.3669,0.3701,0.3723,0.3744,0.3752,0.3769,0.3772,0.3754,0.3754,0.3794,0.3779,0.3753,0.3816,0.3777,0.3782,0.3823,0.3834,0.3843,0.3858,0.3715,0,0,0,0,0,0.3608,0.3628,0.3661,0.3686,0.3704,0.3727,0.3746,0.3761,0.3778,0.3785,0.3785,0.3793,0.3813,0.3817,0.383,0.3856,0.3866,0.3882,0.3891,0.3899,0.3914,0.3962,0.3977,0.3817,0.3817,0.3817,0,0,0.3607,0.3633,0.3642,0.3686,0.3709,0.3743,0.3737,0.3779,0.3808,0.3782,0.3818,0.3829,0.3831,0.3867,0.3883,0.3857,0.3953,0.3905,0.3912,0.3922,0.3969,0.3984,0.3998,0.382,0.382,0.3819,0,0,0.3621,0.3645,0.3665,0.3699,0.375,0.3769,0.3788,0.3823,0.3841,0.388,0.3877,0.3912,0.3925,0.3941,0.3948,0.4019,0.4007,0.4023,0.4073,0.412,0.4134,0.4146,0.4185,0.42,0.4019,0.402,0.402,0,0.362,0.3652,0.368,0.3717,0.3748,0.3784,0.3818,0.3849,0.3889,0.391,0.3902,0.3965,0.3964,0.402,0.4047,0.404,0.4063,0.4025,0.4132,0.4144,0.4155,0.4193,0.4208,0.4024,0.4023,0.4023,0.4022,0,0.3648,0.3681,0.3702,0.3755,0.3794,0.3835,0.3884,0.3924,0.3949,0.3975,0.4042,0.4058,0.4092,0.4105,0.4096,0.4179,0.417,0.4143,0.41,0.4175,0.421,0.4225,0.4029,0.4028,0.4027,0.4026,0,0,0.361,0.37,0.3705,0.3734,0.3819,0.3847,0.3917,0.3978,0.4031,0.4071,0.4134,0.4179,0.4195,0.4207,0.4212,0.4256,0.4353,0.4238,0.4239,0.4272,0.4464,0.4394,0.4402,0.4346,0.4349,0.4351,0.4459,0,0.3618,0.3681,0.373,0.379,0.3825,0.3892,0.3953,0.402,0.4083,0.4156,0.4194,0.4262,0.4231,0.427,0.4307,0.4353,0.4395,0.4327,0.4391,0.4394,0.4317,0.4418,0.4064,0.4125,0.4473,0.4476,0.4478,0,0.3616,0.3662,0.3719,0.3808,0.383,0.3877,0.3986,0.405,0.4168,0.4227,0.4302,0.434,0.4426,0.4389,0.449,0.445,0.4467,0.449,0.4494,0.4415,0.4351,0.4106,0.4139,0.4502,0.45,0.4498,0.4497,0,0.3555,0.3646,0.3688,0.372,0.3832,0.3872,0.3938,0.4062,0.4134,0.4288,0.4354,0.4452,0.4513,0.456,0.4596,0.456,0.4704,0.465,0.46,0.4595,0.43,0.4263,0.4724,0.4723,0.4723,0.4723,0.4723,0,0.3528,0.3558,0.3662,0.3683,0.3748,0.3841,0.3932,0.403,0.4178,0.4262,0.4378,0.446,0.4563,0.4638,0.4652,0.4682,0.4744,0.4641,0.463,0.4314,0.428,0.4602,0.4586,0.4727,0.4726,0.4725,0.4724,0,0.3449,0.3516,0.3568,0.368,0.3719,0.3764,0.3914,0.3979,0.4141,0.4263,0.4317,0.4497,0.461,0.4688,0.4796,0.4748,0.4791,0.4776,0.4404,0.4348,0.4635,0.4622,0.4743,0.4742,0.4741,0.474,0.4739,0,0.341,0.3432,0.3546,0.3572,0.362,0.3709,0.3768,0.3945,0.4022,0.4258,0.4295,0.4481,0.4569,0.4716,0.4707,0.4746,0.4798,0.441,0.4274,0.4666,0.4644,0.4632,0.4621,0.391,0.3902,0.3896,0.3891,0,0.3338,0.3384,0.3425,0.3491,0.3543,0.3605,0.3703,0.3759,0.3956,0.4057,0.4197,0.4306,0.4482,0.4381,0.4462,0.4422,0.438,0.4288,0.48,0.3968,0.3891,0.3865,0.3879,0.3836,0.3842,0.3846,0.3849,0.3851,0.3278,0.3287,0.3346,0.339,0.344,0.3464,0.3462,0.3567,0.3651,0.3758,0.3969,0.4002,0.4096,0.4051,0.3948,0.3867,0.4163,0.3945,0.3959,0.3981,0.3873,0.3799,0.3708,0.3712,0.3716,0.372,0.3723,0,0.3185,0.3208,0.324,0.3262,0.324,0.3331,0.3377,0.3334,0.3338,0.3494,0.3585,0.3361,0.3339,0.3417,0.3231,0.3257,0.318,0.3104,0.2949,0.3009,0.3061,0.29,0.2479,0.2475,0.2471,0.2467,0,0,0.3141,0.3117,0.3124,0.3048,0.3062,0.2977,0.2965,0.2935,0.2983,0.2949,0.2943,0.3214,0.3348,0.2862,0.282,0.2608,0.2777,0.2512,0.3523,0.3403,0.3449,0.3578,0.3405,0,0,0,0,0]},{"header":{"parameterUnit":"m.s-1","parameterCategory":2,"la1":30.2991,"la2":30.254,"lo1":-89.0895,"lo2":-89.0444,"dy":0.0017,"dx":0.0017,"nx":28,"ny":28,"refTime":"2024-12-14T09:00:00:Z","depth":"2","parameterNumber":3,"parameterNumberName":"V-component_of_CURRENTS"},"data":[0,0,0,0,0,0,0,0,0,0,0,0,0,0,0,0,0,0,0,0,0,0,0,0,0,0,0,0,0,0,0,0,0,0,0,0,0,0,0,0,0,0,0,0,0,0,0,0,0,0,0,0,0,0,0,0,0,0,0.0249,0.0249,0,0.0175,0.0174,0.0173,0.0122,0.0121,0.0121,0.0121,0.0028,0.0026,0.0024,0,0,0,0,0,0,0,0,0,0,0,0,0,0.0267,0.0267,0.0249,0.0249,0.0248,0.0175,0.0174,0.0173,0.0122,0.0121,0.0121,0.0121,0.0029,0.0026,0.0024,0,0,0,0,0,0,0,0,0,0,0,0,0,0.0231,0.0267,0.025,0.0215,0.0211,0.0175,0.0174,0.0172,0.0122,0.0121,0.0121,0.0121,0.003,0.0027,0.0023,0.0009,0,0,0.0013,0.0012,0,0,0,0,0,0,0,0,0.0233,0.023,0.0221,0.0217,0.0213,0.0159,0.0146,0.0117,0.0122,0.0154,0.0121,0.0121,0.0072,0.0065,0.0049,0.0005,0.0001,0.0013,0.0011,0.0009,0.0008,0,0,0,0,0,0,0,0.0236,0.0233,0.0218,0.022,0.0215,0.0176,0.0171,0.014,0.0114,0.0151,0.0148,0.0142,0.0069,0.0053,0.0047,-0.0001,0.0013,0.001,0.0008,0.0006,-0.0062,-0.0061,0,0,0,0,0,0,0.0253,0.0236,0.022,0.0216,0.0224,0.0176,0.017,0.0175,0.0114,0.0105,0.0143,0.014,0.0059,0.0051,0.0043,0.0041,0.0009,0.0006,0.0004,-0.0062,-0.0062,-0.0061,0,0,0,0,0,0,0.0254,0.0253,0.0224,0.0225,0.0218,0.0177,0.0182,0.0174,0.0161,0.0109,0.0099,0.0139,0.0058,0.0048,0.0024,0.0037,0.0005,0.0001,-0.0062,-0.0062,-0.0061,0.0025,0,0,0,0,0,0,0.0255,0.0254,0.026,0.0226,0.0219,0.0215,0.0182,0.0173,0.0159,0.0155,0.0102,0.0093,0.0057,0.003,0.0021,0.0031,-0.0001,-0.0062,-0.0062,-0.0062,0.0022,0.0029,0.0034,0,0,0,0,0,0.0256,0.0276,0.0261,0.0259,0.0231,0.0216,0.0208,0.0175,0.0159,0.0161,0.0124,0.0095,0.0026,0.0028,0.0017,0.0027,-0.0063,-0.0062,-0.0062,0.002,0.0027,0.0034,0,0,0,0,0,0,0.0288,0.0272,0.0255,0.0269,0.0247,0.0208,0.0206,0.0183,0.0154,0.0151,0.0099,0.0088,0.007,0.0036,0.0038,0.0007,-0.0024,-0.0026,0.0041,0.0048,0.0054,0.0079,-0.0004,0,0,0,0,0,0.0298,0.0308,0.0281,0.029,0.0284,0.0245,0.0233,0.0213,0.0185,0.0171,0.0134,0.0094,0.0063,0.0047,0.0013,-0.0001,-0.0039,-0.0004,0.0002,0.0007,0.002,-0.0028,-0.0024,-0.006,-0.006,-0.006,0,0,0.0313,0.0304,0.0309,0.0297,0.0276,0.0283,0.0237,0.0231,0.0234,0.0166,0.0159,0.0114,0.0063,0.0047,0.0036,0.0021,-0.0004,0.0008,0.0013,0.0023,-0.0027,-0.0023,-0.002,-0.0059,-0.0059,-0.0059,0,0,0.0353,0.0341,0.0363,0.0352,0.0332,0.0312,0.0316,0.0282,0.0265,0.0249,0.0202,0.017,0.012,0.0089,0.0066,0.0084,0.0029,0.0068,0.0121,0.0075,0.0078,0.008,0.0037,0.0034,0.0072,0.0072,0.0073,0,0.0369,0.0396,0.0365,0.0381,0.0385,0.0334,0.036,0.0335,0.0297,0.0292,0.026,0.0188,0.0142,0.0125,0.0128,0.0099,0.0063,0.0101,0.0084,0.0085,0.0086,0.0041,0.0037,0.0077,0.0076,0.0076,0.0075,0,0.0425,0.0443,0.0456,0.0464,0.0461,0.0475,0.0445,0.0434,0.0403,0.0377,0.0348,0.0276,0.0238,0.0211,0.0174,0.016,0.0129,0.0098,0.0072,0.0095,0.0046,0.0041,0.0083,0.0081,0.008,0.0079,0,0,0.0474,0.0494,0.0498,0.0521,0.051,0.0519,0.0524,0.052,0.0535,0.047,0.0477,0.0402,0.0359,0.0329,0.027,0.0224,0.019,0.017,0.0166,0.0138,0.009,0.0069,0.006,0.0155,0.0154,0.0154,0.0054,0,0.0528,0.0587,0.0579,0.0635,0.0666,0.063,0.0642,0.0627,0.0604,0.0594,0.0507,0.0488,0.0406,0.039,0.033,0.0231,0.018,0.0221,0.0062,0.0058,0.0044,0.0054,0.0081,-0.0006,0.0048,0.0047,0.0047,0,0.059,0.0623,0.0689,0.0731,0.0741,0.076,0.0783,0.0794,0.076,0.074,0.0695,0.0626,0.0554,0.0475,0.0316,0.0345,0.023,0.014,0.0133,0.0082,0.0026,-0.0023,-0.0019,0.0037,0.0037,0.0038,0.0039,0,0.065,0.0705,0.0766,0.0778,0.0807,0.0827,0.0845,0.0837,0.0874,0.0841,0.0854,0.0742,0.07,0.0539,0.0349,0.0333,0.0165,0.0118,-0.0013,-0.0017,-0.004,-0.0044,0.0002,0.0002,0.0002,0.0003,0.0003,0,0.0718,0.0766,0.0798,0.0829,0.0907,0.09,0.098,0.0975,0.0997,0.1055,0.0941,0.0953,0.0714,0.0586,0.0392,0.0182,0.0196,0.0002,-0.0041,-0.001,-0.001,-0.001,-0.001,-0.0001,-0.0,0.0001,0.0001,0,0.0775,0.0793,0.0868,0.0914,0.0938,0.0995,0.1087,0.1148,0.1147,0.1217,0.1213,0.1117,0.0954,0.0704,0.0447,0.0259,0.0045,-0.0037,0.0017,-0.0018,-0.012,-0.0115,-0.0192,-0.0194,-0.0195,-0.0196,-0.0197,0,0.0811,0.0852,0.0936,0.0993,0.1019,0.1108,0.1177,0.122,0.1303,0.1326,0.1371,0.1239,0.1174,0.0791,0.0438,0.0098,0.0047,-0.0114,-0.0145,-0.0104,-0.0139,-0.0131,-0.0124,-0.0148,-0.0148,-0.0149,-0.0149,0,0.0876,0.0898,0.0959,0.1079,0.1165,0.1282,0.1386,0.1474,0.1526,0.1586,0.1634,0.1582,0.1224,0.09,0.0426,0.0183,-0.0059,-0.0132,-0.0105,-0.0095,-0.0069,-0.0101,-0.0094,-0.0152,-0.0152,-0.0151,-0.0151,-0.0151,0.0921,0.0975,0.1054,0.1173,0.1283,0.1428,0.1535,0.1655,0.1794,0.188,0.1832,0.1763,0.1381,0.0795,0.0377,-0.0078,-0.0055,-0.0223,-0.0219,-0.0216,-0.0185,-0.0162,-0.0257,-0.0257,-0.0258,-0.0258,-0.0258,0,0.0973,0.1035,0.1145,0.1283,0.1414,0.1468,0.1656,0.1763,0.1928,0.2006,0.2046,0.1683,0.1316,0.0863,0.0209,-0.0176,-0.022,-0.032,-0.0274,-0.0268,-0.0263,-0.0233,-0.0319,-0.032,-0.0322,-0.0323,0,0,0.0998,0.1097,0.1151,0.1359,0.1469,0.1648,0.176,0.1916,0.2017,0.2101,0.2072,0.2004,0.146,0.0983,0.0454,0.0072,-0.0019,-0.0023,0.0067,0.019,0.02,-0.0167,-0.0109,0,0,0,0,0]}],[{"header":{"parameterUnit":"m.s-1","parameterCategory":2,"la1":30.2991,"la2":30.254,"lo1":-89.0895,"lo2":-89.0444,"dy":0.0017,"dx":0.0017,"nx":28,"ny":28,"refTime":"2024-12-14T09:00:00:Z","depth":"4","parameterNumber":2,"parameterNumberName":"U-component_of_CURRENTS"},"data":[0,0,0,0,0,0,0,0,0,0,0,0,0,0,0,0,0,0,0,0,0,0,0,0,0,0,0,0,0,0,0,0,0,0,0,0,0,0,0,0,0,0,0,0,0,0,0,0,0,0,0,0,0,0,0,0,0,0,0.2397,0.2398,0,0.2505,0.2506,0.2507,0.2591,0.2592,0.2593,0.2594,0.2692,0.2693,0.2695,0,0,0,0,0,0,0,0,0,0,0,0,0,0.2262,0.2264,0.2397,0.2398,0.24,0.2505,0.2506,0.2507,0.259,0.2592,0.2593,0.2594,0.2691,0.2693,0.2695,0,0,0,0,0,0,0,0,0,0,0,0,0,0.2338,0.2264,0.2396,0.2456,0.2463,0.2505,0.2506,0.2508,0.259,0.2592,0.2593,0.2595,0.269,0.2693,0.2695,0.2679,0,0,0.2703,0.2704,0,0,0,0,0,0,0,0,0.2333,0.2342,0.2446,0.2452,0.2459,0.2538,0.2495,0.2566,0.259,0.2539,0.2594,0.2596,0.264,0.2647,0.266,0.2684,0.2688,0.2703,0.2705,0.2706,0.2706,0,0,0,0,0,0,0,0.2328,0.2338,0.2437,0.2447,0.2456,0.2478,0.249,0.2509,0.2577,0.2543,0.255,0.2566,0.2644,0.2657,0.2663,0.269,0.2703,0.2705,0.2707,0.2708,0.2862,0.2865,0,0,0,0,0,0,0.2319,0.2333,0.2433,0.244,0.2402,0.2479,0.2493,0.2509,0.2577,0.259,0.2565,0.257,0.2652,0.266,0.2667,0.279,0.2706,0.2708,0.2709,0.286,0.2863,0.2866,0,0,0,0,0,0,0.2315,0.2326,0.2429,0.2391,0.2406,0.248,0.2498,0.2511,0.2579,0.2594,0.2607,0.2627,0.2654,0.2663,0.2736,0.2789,0.2709,0.2711,0.2857,0.2861,0.2864,0.2948,0,0,0,0,0,0,0.2311,0.2324,0.2358,0.2391,0.2408,0.249,0.2497,0.2512,0.2585,0.2594,0.265,0.2658,0.2656,0.2732,0.2738,0.2791,0.2713,0.2853,0.2858,0.2863,0.2942,0.2954,0.2965,0,0,0,0,0,0.2305,0.2337,0.2359,0.2373,0.2444,0.2492,0.2504,0.2558,0.2587,0.2624,0.2669,0.2659,0.2768,0.2736,0.2742,0.2798,0.2851,0.2857,0.2863,0.2937,0.2952,0.2965,0,0,0,0,0,0,0.2297,0.2349,0.2374,0.2422,0.2472,0.2508,0.2556,0.2587,0.2652,0.2678,0.2688,0.2699,0.2785,0.278,0.2745,0.2858,0.2809,0.2817,0.2864,0.2878,0.2889,0.2893,0.2715,0,0,0,0,0,0.2308,0.2353,0.2397,0.2444,0.2472,0.2524,0.2561,0.2599,0.2647,0.2681,0.272,0.2764,0.2804,0.2834,0.2866,0.2923,0.2924,0.2965,0.2976,0.2986,0.2996,0.3043,0.306,0.2885,0.2885,0.2885,0,0,0.2317,0.2356,0.2383,0.2448,0.2493,0.254,0.2552,0.2625,0.2677,0.2678,0.2778,0.281,0.283,0.29,0.2938,0.291,0.304,0.2994,0.3002,0.3006,0.3051,0.3068,0.3083,0.2889,0.2888,0.2888,0,0,0.2341,0.2396,0.2435,0.2482,0.2561,0.2591,0.2624,0.2692,0.2744,0.2825,0.2846,0.2914,0.2975,0.3001,0.3017,0.3111,0.3101,0.3132,0.3191,0.3239,0.3253,0.3265,0.3295,0.331,0.3134,0.3135,0.3135,0,0.2354,0.2406,0.2456,0.2505,0.2553,0.2619,0.267,0.2725,0.2814,0.2857,0.2875,0.2997,0.3019,0.3094,0.3135,0.3137,0.3159,0.3133,0.3252,0.3265,0.3276,0.3304,0.3319,0.3139,0.3139,0.3138,0.3138,0,0.2389,0.2453,0.2485,0.2567,0.2624,0.2687,0.2757,0.2834,0.2904,0.295,0.3065,0.3107,0.3175,0.32,0.3199,0.3298,0.3287,0.3262,0.3212,0.3299,0.3322,0.3336,0.3146,0.3144,0.3143,0.3142,0,0,0.2353,0.2483,0.2499,0.2551,0.2667,0.2708,0.2812,0.2903,0.2981,0.3074,0.3168,0.325,0.3289,0.3311,0.3331,0.3379,0.3482,0.3368,0.3368,0.3389,0.3591,0.3362,0.3354,0.3485,0.3488,0.3491,0.3576,0,0.2369,0.2462,0.2529,0.2629,0.2682,0.278,0.2865,0.2963,0.3059,0.3168,0.3234,0.3336,0.3325,0.3388,0.3432,0.3479,0.3523,0.3461,0.3511,0.3513,0.3291,0.3364,0.35,0.3586,0.3589,0.3592,0.3593,0,0.2367,0.2437,0.2534,0.2666,0.27,0.2777,0.2931,0.3018,0.3169,0.3251,0.3359,0.342,0.3528,0.3505,0.3614,0.3582,0.3599,0.3618,0.3621,0.3385,0.3308,0.3482,0.3618,0.3616,0.3614,0.3613,0.3611,0,0.2295,0.2433,0.2514,0.2562,0.272,0.2796,0.2893,0.3049,0.3138,0.3325,0.3408,0.3531,0.3616,0.3668,0.3709,0.3686,0.3809,0.3768,0.3573,0.3558,0.3701,0.3687,0.3837,0.3837,0.3837,0.3837,0.3837,0,0.2258,0.2328,0.2498,0.2541,0.2653,0.2777,0.2913,0.3033,0.3207,0.33,0.3451,0.3528,0.3667,0.3741,0.3757,0.3701,0.3844,0.3593,0.3565,0.3735,0.3724,0.3711,0.3695,0.384,0.3839,0.3839,0.3838,0,0.2162,0.2274,0.2377,0.2558,0.2623,0.2708,0.2917,0.3,0.3188,0.332,0.3388,0.3568,0.3656,0.3749,0.3845,0.3731,0.3726,0.367,0.3861,0.3842,0.3434,0.3422,0.3452,0.3445,0.3438,0.3433,0.3429,0,0.2116,0.2164,0.2368,0.2433,0.2526,0.2674,0.2765,0.2975,0.3056,0.3298,0.3327,0.3501,0.3587,0.3531,0.3653,0.3665,0.3619,0.3588,0.3489,0.3425,0.3396,0.3394,0.3391,0.3419,0.3417,0.3416,0.3414,0,0.2029,0.2126,0.2212,0.2346,0.2457,0.2559,0.2703,0.2739,0.2956,0.315,0.319,0.3236,0.3322,0.338,0.342,0.3419,0.3592,0.3521,0.3533,0.344,0.3385,0.3362,0.3366,0.3392,0.3395,0.3397,0.3399,0,0.1971,0.2007,0.2133,0.223,0.2355,0.2393,0.2493,0.2569,0.2671,0.2919,0.2927,0.3102,0.3282,0.3253,0.3289,0.3275,0.3217,0.3095,0.3128,0.3153,0.3014,0.2898,0.2738,0,0,0,0,0,0.1899,0.1919,0.2001,0.2084,0.2194,0.2268,0.2422,0.2518,0.2713,0.2665,0.2787,0.2852,0.2897,0.2995,0.292,0.3166,0.3239,0.3064,0.3118,0.3272,0.3297,0.316,0,0,0,0,0,0,0.1847,0.192,0.1946,0.1937,0.1963,0.2058,0.2147,0.2282,0.2264,0.2474,0.2515,0.2677,0.2772,0.2912,0.2866,0.2896,0.2868,0.3186,0.3179,0.3258,0.3281,0.3301,0.3169,0,0,0,0,0]},{"header":{"parameterUnit":"m.s-1","parameterCategory":2,"la1":30.2991,"la2":30.254,"lo1":-89.0895,"lo2":-89.0444,"dy":0.0017,"dx":0.0017,"nx":28,"ny":28,"refTime":"2024-12-14T09:00:00:Z","depth":"4","parameterNumber":3,"parameterNumberName":"V-component_of_CURRENTS"},"data":[0,0,0,0,0,0,0,0,0,0,0,0,0,0,0,0,0,0,0,0,0,0,0,0,0,0,0,0,0,0,0,0,0,0,0,0,0,0,0,0,0,0,0,0,0,0,0,0,0,0,0,0,0,0,0,0,0,0,0.0236,0.0235,0,0.0185,0.0185,0.0184,0.0151,0.0151,0.0151,0.015,0.0087,0.0085,0.0084,0,0,0,0,0,0,0,0,0,0,0,0,0,0.0242,0.0243,0.0236,0.0235,0.0235,0.0186,0.0185,0.0184,0.0151,0.0151,0.015,0.015,0.0087,0.0085,0.0083,0,0,0,0,0,0,0,0,0,0,0,0,0,0.0219,0.0243,0.0236,0.0213,0.0211,0.0186,0.0185,0.0184,0.0151,0.0151,0.015,0.015,0.0088,0.0086,0.0083,0.0071,0,0,0.0076,0.0075,0,0,0,0,0,0,0,0,0.0221,0.0219,0.0217,0.0215,0.0212,0.0175,0.0164,0.0146,0.0151,0.0172,0.015,0.015,0.0116,0.0111,0.0101,0.0068,0.0066,0.0076,0.0074,0.0073,0.0072,0,0,0,0,0,0,0,0.0222,0.0221,0.0214,0.0216,0.0213,0.0185,0.0182,0.016,0.0144,0.017,0.0168,0.0165,0.0114,0.0103,0.0099,0.0065,0.0076,0.0074,0.0072,0.0071,0.0025,0.0026,0,0,0,0,0,0,0.0235,0.0223,0.0216,0.0213,0.0218,0.0185,0.0182,0.0186,0.0145,0.0139,0.0165,0.0163,0.0107,0.0102,0.0096,0.0101,0.0073,0.0071,0.0069,0.0025,0.0025,0.0026,0,0,0,0,0,0,0.0235,0.0235,0.0218,0.0217,0.0213,0.0186,0.0191,0.0185,0.0179,0.0141,0.0134,0.0165,0.0107,0.01,0.0086,0.0098,0.007,0.0068,0.0025,0.0025,0.0025,0.0097,0,0,0,0,0,0,0.0236,0.0236,0.0243,0.0218,0.0214,0.0214,0.0191,0.0184,0.0178,0.0175,0.0139,0.0132,0.0106,0.009,0.0084,0.0094,0.0066,0.0025,0.0025,0.0025,0.0094,0.01,0.0104,0,0,0,0,0,0.0236,0.0253,0.0244,0.0243,0.0226,0.0215,0.021,0.0188,0.0178,0.0181,0.0156,0.0134,0.0088,0.0088,0.0081,0.0091,0.0024,0.0025,0.0025,0.0092,0.0098,0.0104,0,0,0,0,0,0,0.0262,0.0251,0.0241,0.0254,0.0239,0.021,0.0212,0.0195,0.0177,0.0177,0.0139,0.0131,0.0121,0.0095,0.0097,0.0077,0.0051,0.005,0.0104,0.011,0.0115,0.0134,0.0064,0,0,0,0,0,0.0271,0.0281,0.0261,0.0271,0.0267,0.024,0.0233,0.0219,0.02,0.0192,0.0166,0.0138,0.0116,0.0106,0.0081,0.0074,0.0039,0.0073,0.0078,0.0083,0.0092,0.0048,0.0051,0.0027,0.0027,0.0027,0,0,0.0284,0.0279,0.0284,0.0277,0.0263,0.027,0.0236,0.0234,0.0238,0.0188,0.0188,0.0155,0.0117,0.0109,0.0102,0.009,0.007,0.0083,0.0088,0.0095,0.0049,0.0052,0.0054,0.0028,0.0028,0.0027,0,0,0.0316,0.0311,0.0328,0.0321,0.0309,0.0295,0.0299,0.0276,0.0266,0.0258,0.0223,0.0201,0.0167,0.0144,0.0128,0.0145,0.0097,0.0134,0.0177,0.0134,0.0136,0.0137,0.0094,0.0091,0.0138,0.0138,0.0138,0,0.0331,0.0352,0.0331,0.0344,0.0349,0.0313,0.0335,0.0319,0.0293,0.0291,0.0269,0.0218,0.0186,0.0175,0.018,0.0158,0.0124,0.016,0.0142,0.0142,0.0142,0.0097,0.0093,0.0141,0.0141,0.014,0.014,0,0.0372,0.039,0.0401,0.0409,0.041,0.0423,0.0403,0.0398,0.0379,0.0361,0.0343,0.029,0.0263,0.0244,0.0218,0.0205,0.0178,0.0154,0.0131,0.0149,0.01,0.0094,0.0146,0.0145,0.0144,0.0143,0,0,0.0404,0.0427,0.0431,0.0452,0.0449,0.0457,0.0466,0.0468,0.0482,0.0436,0.0443,0.0392,0.036,0.0338,0.0294,0.0254,0.0221,0.0211,0.0207,0.0176,0.0124,0.0105,0.0096,0.0192,0.0192,0.0191,0.009,0,0.0443,0.0491,0.0491,0.0539,0.0563,0.0544,0.0558,0.0551,0.0538,0.0533,0.0468,0.0457,0.0397,0.0387,0.0337,0.0254,0.0209,0.0251,0.0104,0.01,0.0087,0.009,0.0189,0.0085,0.0083,0.0082,0.0082,0,0.0484,0.0513,0.0569,0.0611,0.0621,0.0643,0.0669,0.0681,0.066,0.0647,0.0615,0.0563,0.0506,0.0448,0.031,0.0339,0.0243,0.0167,0.016,0.0116,0.007,0.0061,0.007,0.0071,0.0072,0.0073,0.0073,0,0.0519,0.0571,0.0623,0.0636,0.067,0.0694,0.0716,0.0718,0.0749,0.0728,0.0738,0.0649,0.0613,0.0481,0.0324,0.0317,0.0162,0.013,0.0017,0.0014,0.0031,0.0031,0.0029,0.0029,0.0029,0.003,0.003,0,0.0559,0.0602,0.0646,0.0673,0.0743,0.0749,0.0821,0.0823,0.0846,0.0888,0.0808,0.0804,0.062,0.0507,0.0351,0.017,0.0179,0.0027,-0.0011,0.0062,0.0066,0.0026,0.0027,0.0026,0.0027,0.0028,0.0028,0,0.0584,0.0612,0.0679,0.0735,0.0762,0.0813,0.0905,0.0954,0.0963,0.1012,0.101,0.0923,0.0775,0.0579,0.036,0.0218,0.0039,-0.0031,0.0068,0.0036,-0.0089,-0.0084,-0.0164,-0.0166,-0.0167,-0.0168,-0.0169,0,0.0599,0.0635,0.0728,0.078,0.0813,0.0898,0.096,0.1008,0.1066,0.1081,0.1102,0.0988,0.0896,0.0586,0.0368,0.0065,0.0015,-0.0089,-0.0097,-0.0079,-0.0108,-0.0101,-0.0093,-0.0171,-0.0171,-0.0172,-0.0172,0,0.0625,0.066,0.0716,0.0827,0.0908,0.1009,0.11,0.115,0.1198,0.121,0.1177,0.1016,0.0847,0.0595,0.0358,0.0139,-0.0028,-0.0103,-0.0103,-0.0111,-0.0088,-0.0114,-0.0106,-0.0176,-0.0176,-0.0175,-0.0175,0,0.0644,0.0686,0.0765,0.0863,0.0975,0.1078,0.113,0.1191,0.1246,0.1251,0.1237,0.1055,0.0953,0.0633,0.0419,0.0198,0.0131,0.004,0.0032,0.0034,0.0114,0.0174,0.0138,0,0,0,0,0,0.0656,0.0704,0.0795,0.0903,0.1021,0.1089,0.1203,0.1246,0.129,0.1275,0.1259,0.11,0.0787,0.0665,0.0441,0.0374,0.008,0.01,-0.0032,-0.02,-0.0195,-0.0138,0,0,0,0,0,0,0.0661,0.0742,0.0786,0.0922,0.1004,0.1136,0.1213,0.1246,0.1242,0.1249,0.11,0.1022,0.0732,0.0915,0.0431,0.0366,0.0245,-0.0038,-0.0044,-0.0203,-0.0199,-0.0195,-0.0134,0,0,0,0,0]}]]